Regional Weather Roundup
Issued by NWS

Home | Current Version | Previous Version | Text Only | Print | Product List | Glossary Off
Versions: 1 2 3 4 5 6 7 8 9 10 11 12 13 14 15 16 17 18 19 20 21 22 23 24 25 26 27 28 29 30 31 32 33 34 35 36 37 38 39 40 41 42 43 44 45 46 47 48 49 50

000
ASUS43 KBIS 260810
RWRND

NORTH DAKOTA REGIONAL WEATHER ROUNDUP
NATIONAL WEATHER SERVICE BISMARCK ND
300 AM CDT THU APR 26 2018

NOTE: "FAIR" INDICATES FEW OR NO CLOUDS BELOW 12,000 FEET WITH NO
SIGNIFICANT WEATHER AND/OR OBSTRUCTIONS TO VISIBILITY.


NDZ001>003-009>011-017-260900-
NORTHWEST NORTH DAKOTA

CITY           SKY/WX    TMP DP  RH WIND       PRES   REMARKS
WILLISTON      CLEAR     38  30  73 CALM      30.10R
MINOT          CLEAR     42  33  70 W12       30.01R
MINOT AFB      CLEAR     33  29  87 NW10      30.01R
$$

NDZ018>021-031>035-040>046-260900-
SOUTHWEST NORTH DAKOTA

CITY           SKY/WX    TMP DP  RH WIND       PRES   REMARKS
BISMARCK       CLEAR     48  32  53 N12       30.00R
DICKINSON      CLEAR     40  31  70 NW8       30.05R
GARRISON         N/A     37  32  82 NW9       30.02R
HETTINGER ARPT CLEAR     41  31  67 N10       30.07R
$$

NDZ004>008-012>016-024-026-027-054-260900-
NORTHEAST NORTH DAKOTA

CITY           SKY/WX    TMP DP  RH WIND       PRES   REMARKS
GRAND FORKS    MOCLDY    44  33  65 N15       29.86R
GRND FRKS AFB  FAIR      46  32  60 N16       29.87R
DEVILS LAKE    FAIR      40  28  62 N14       29.94R
$$

NDZ022-023-025-028>030-036>039-047>053-260900-
SOUTHEAST NORTH DAKOTA

CITY           SKY/WX    TMP DP  RH WIND       PRES   REMARKS
FARGO          FAIR      43  36  76 W6        29.79S
JAMESTOWN      CLEAR     43  33  68 N13       29.89R
$$





USA.gov is the U.S. government's official web portal to all federal, state and local government web resources and services.